User: anonymous   Login
Location: Borgo
(42.3939°N, 9.2791°E)
Time: 20:44:06
(UTC+00:00)
Language:

SJ-11-01 - Orbit

View from above orbital plane
View from above orbital plane
View from above satellite
View from above satellite

Ground track
Ground track

The orbit data is extracted from the following two-line orbital elements,

1 36088U 09061A   21104.51564987  .00000026  00000-0  14571-4 0  9994
2 36088  97.9608 132.1962 0010822 205.3473 154.7205 14.60211271608549
Epoch (UTC): 14 April 2021 12:22:32
Eccentricity: 0.0010822
inclination: 97.9608°
perigee height: 685 km
apogee height: 700 km
right ascension of ascending node: 132.1962°
argument of perigee: 205.3473°
revolutions per day: 14.60211271
mean anomaly at epoch: 154.7205°
orbit number at epoch: 60854

The dashed part of the orbit path shows where the satellite is in the earth's shadow,  

DLR